www.pogodaiklimat.ru

Погода и климат >> Архив погоды >> Пакистан >> Sibi


ПОГОДА в Sibi

  • Прогноз погоды в Sibi
  • Монитор погоды в Sibi
  • Климат города

АРХИВ ПОГОДЫ в Sibi

Время (UTC), дата Ветер
(напр.,м/с)
 
Видим.   Явления Облачность Т
(С)
Тd
(С)
f
(%)
Тe
(С)
Тes
(С)
Комфортность P
(гПа)
Po
(гПа)
Тmin
(С)
Tmax
(С)
R
(мм)
R24
(мм)
S
(см)
00 11.11 штиль 0 4000 м ясно +16.7 +15.6 93 +17 +17 1013.6 997.7
03 11.11 штиль 0 10 км ясно +17.2 +15.3 89 +17 +18 1015.8 999.9 +10.5
06 11.11 ЮВ 2 10 км ясно +22.8 +17.4 72 +28 +36 душно 1016.9 1000.8
09 11.11 ЮЗ 1 10 км ясно +28.3 +19.4 59 +34 +44 очень
душно
1013.7 1000.0
12 11.11 ЮЗ 2 10 км ясно +28.3 +19.4 59 +34 +35 очень
душно
1012.2 997.0 +29.5
15 11.11 штиль 0 4000 м ясно +23.3 +18.8 76 +30 +30 очень
душно
1013.3 1000.0
18 11.11 штиль 0 50 км слабый ливневой дождь ?/? +18.7 -35 -35 опасность
переохлаждения
1008.8 1009.0
21 11.11 штиль 0 4000 м ясно +18.9 +16.5 86 +20 +20 1013.7 1000.0
00 12.11 штиль 0 50 км ливневой дождь ?/? +28.0 1014.4 994.7
03 12.11 штиль 0 10 км ясно +18.3 +15.1 82 +19 +19 1013.6 997.8 +11.0
06 12.11 ЮВ 2 10 км ясно +23.9 +15.8 60 +27 +35 жарко 1014.2 1014.0
09 12.11 ЮВ 1 10 км ясно +27.8 +18.8 58 +33 +43 очень
душно
1010.9 1000.0
12 12.11 штиль 0 10 км ясно +27.8 +19.6 61 +34 +34 очень
душно
1009.1 993.9 +29.5
15 12.11 ЮВ 1 4000 м ясно +23.3 +18.8 76 +30 +30 очень
душно
1010.1 1000.0
18 12.11 СВ 1 4000 м ясно +21.7 +16.6 73 +26 +26 душно 1010.3 1000.0
21 12.11 штиль 0 4000 м ясно +20.0 +16.7 81 +22 +22 комфорт 1009.6 1000.0
00 13.11 штиль 0 4000 м ясно +18.9 +15.6 81 +20 +20 1009.2 993.5
03 13.11 штиль 0 4000 м ясно +20.0 +15.8 77 +22 +23 комфорт 1010.4 994.7 +11.5
06 13.11 ЮЗ 1 4000 м 5/5 300 м
[Sc]
+23.3 +17.1 68 +28 +33 душно 1011.2 1000.0
09 13.11 СВ 2 4000 м 10/5 300 м
[Sc As trans]
+23.3 +17.1 68 +28 +30 душно 1007.5 1000.0
12 13.11 СЗ 3 4000 м гроза без осадков 8/3 750 м
[Cb cap]
+17.8 +16.3 91 +18 +18 1007.6 991.8 +25.0
15 13.11 ЮЗ 1 4000 м 5/5 300 м
[Sc]
+17.2 +13.5 79 +19 +19 1010.0 1000.0
18 13.11 штиль 0 4000 м ясно +16.7 +15.6 93 +17 +17 1010.5 1011.0
21 13.11 штиль 0 4000 м ясно +15.6 +14.6 94 +15 +15 1010.2 1000.0
00 14.11 ЮВ 1 4000 м 9/4 300 м
[Sc As trans]
+15.6 +14.6 94 +17 +17 1008.8 992.8
03 14.11 штиль 0 10 км ясно +15.6 +14.6 94 +15 +16 1009.5 993.5 +9.5
06 14.11 ЮВ 1 10 км ясно +20.6 +14.6 68 +24 +33 комфорт 1010.8 998.1
09 14.11 штиль 0 10 км ясно +24.2 +14.9 56 +27 +37 жарко 1008.6 1000.0
12 14.11 штиль 0 10 км ясно +24.2 +14.9 56 +27 +28 жарко 1008.0 992.5 +25.0
15 14.11 штиль 0 4000 м ясно +20.3 +16.4 78 +23 +23 комфорт 1010.4 1000.0
18 14.11 штиль 0 4000 м ясно +18.3 +15.1 82 +19 +19 1011.3 1011.0
21 14.11 штиль 0 4000 м ясно +16.9 +14.4 85 +17 +17 1010.6 1000.0
00 15.11 штиль 0 4000 м ясно +14.4 +12.7 90 +14 +14 1012.3 996.3
03 15.11 штиль 0 10 км ясно +14.4 +12.7 90 +14 +15 1014.3 998.3 +9.1
06 15.11 СЗ 2 10 км ясно +18.3 +13.6 74 +19 +27 1016.0 1000.1
09 15.11 штиль 0 10 км 5/5 300 м
[Sc]
+22.5 +16.8 70 +27 +32 душно 1013.1 1000.0
12 15.11 штиль 0 10 км ясно +22.5 +16.8 70 +27 +28 душно 1011.9 996.4 +24.0
15 15.11 ЮВ 1 4000 м ясно +19.4 +15.3 77 +22 +22 комфорт 1013.8 1000.0
18 15.11 штиль 0 4000 м ясно +17.8 +15.5 86 +18 +18 1014.9 1000.8
21 15.11 штиль 0 4000 м ясно +16.4 +13.9 85 +16 +16 1014.7 1000.0
00 16.11 штиль 0 4000 м 4/4 300 м
[Sc]
+14.4 +12.7 90 +14 +14 1014.9 998.9
03 16.11 штиль 0 10 км 4/4 300 м
[Sc]
+14.4 +12.7 90 +14 +14 1018.1 1002.1 +8.5
06 16.11 штиль 0 10 км ясно +18.3 +13.6 74 +19 +29 1019.0 1019.0
09 16.11 штиль 0 10 км ясно +23.3 +14.3 57 +27 +37 душно 1016.6 1000.0
12 16.11 штиль 0 50 км ?/? +13.2 1015.6 994.0
15 16.11 ЮВ 1 4000 м ясно +19.4 +12.4 64 +22 +22 комфорт 1015.8 1000.0
18 16.11 штиль 0 4000 м ясно +16.7 +13.9 84 +17 +17 1016.7 1017.0
21 16.11 штиль 0 4000 м ясно +15.0 +13.2 89 +15 +15 1015.3 1015.0
00 17.11 штиль 0 4000 м ясно +14.2 +12.2 88 +14 +14 1016.9 1000.8
03 17.11 штиль 0 10 км ясно +12.8 +11.1 89 +12 +13 1018.4 1002.3 +6.5
06 17.11 ЮВ 1 10 км ясно +21.1 +12.2 57 +23 +32 комфорт 1019.0 1000.0
09 17.11 штиль 0 10 км ясно +24.4 +15.5 58 +27 +38 жарко 1016.3 1016.0
12 17.11 штиль 0 10 км ясно +23.3 +9.9 43 +25 +26 комфорт 1014.6 999.1 +26.1
15 17.11 ЮВ 2 4000 м ясно +18.9 +11.8 63 +20 +20 1015.9 1016.0
18 17.11 штиль 0 4000 м ясно +16.1 +11.4 74 +16 +16 1016.9 1000.0

 

Местоположение метеостанции Sibi (Пакистан): широта 29.55 долгота 67.88 высота над уровнем моря 134 м.

В архиве по умолчанию представлена погода в Sibi за последнюю неделю. Архивные данные за месяц целиком и за предыдущие месяцы, начиная с января 2011 года, Вы можете получить, выбрав интересующий диапазон дат из раскрывающегося списка и нажав кнопку "Ввод!".

Внимание! Время в таблицах - всемирное. Для получения местного времени необходимо прибавить поправку, которая в Sibi равна 5 ч.

Смотрите также архив погоды в соседних городах и на ближайших метеорологических станциях:

Погода в Quetta Airport (Пакистан) (124 км)
Погода в Kalat (Пакистан) (139 км)
Погода в Jacobabad (Пакистан) (150 км)
Погода в Barkhan (Пакистан) (181 км)
Погода в Khuzdar (Пакистан) (227 км)
Погода в Rohri (Пакистан) (232 км)
Погода в Zhob (Пакистан) (252 км)
Погода в Khanpur (Пакистан) (290 км)
Погода в Pad Idan (Пакистан) (301 км)
Погода в Dal Bandin (Пакистан) (346 км)

Пояснения к столбцам:

Ветер - указаны скорость ветра в м/с - средняя за 10 мин, порывы в срок и между сроками (в фигурных скобках) и направление, откуда дует ветер: С - северный, СВ - северо-восточный, В - восточный, ЮВ - юго-восточный, Ю - южный, ЮЗ - юго-западный, З - западный, СЗ - северо-западный.
Видимость - горизонтальная дальность видимости в метрах или километрах. При видимости от 1 до 10 км при отсутствии осадков обычно наблюдается дымка, при ухудшении видимости до 1 км и менее - туман. В сухую погоду видимость может ухудшаться дымом, пылью или мглою.
Явления - указаны атмосферные явления, наблюдавшиеся в срок или в последний час перед сроком; фигурными скобками обозначены явления, наблюдавшиеся между сроками (за 1-3 часа до срока); квадратными скобками обозначены град или гололедные отложения с указанием их диаметра в мм.
Облачность - указаны через наклонную черту общая и нижняя облачность в баллах и высота нижней границы облаков в метрах; квадратными скобками обозначены формы облаков: Ci - перистые, Cs - перисто-слоистые, Cc - перисто-кучевые, Ac - высококучевые, As - высокослоистые, Sc - слоисто-кучевые, Ns - слоисто-дождевые, Cu - кучевые, Cb - кучево-дождевые. Подробнее классификацию облаков см. в Атласе облаков (PDF).
T - Температура воздуха - температура, измеренная на высоте 2 м над землей.
Td - Температура точки росы - температура, при понижении до которой содержащийся в воздухе водяной пар достигнет насыщения.
f - Относительная влажность воздуха - влажноcть воздуха, измеренная на высоте 2 м над землей.
Te - Эффективная температура - температура, которую ощущает одетый по сезону человек в тени. Характеристика душности погоды. При расчете учитывается влияние влажности воздуха и скорости ветра на теплоощущения человека.
Tes - Эффективная температура на солнце - температура, которую ощущает человек, с поправкой на солнечный нагрев. Характеристика знойности погоды. Зависит от высоты солнца над горизонтом, облачности и скорости ветра. Ночью, в пасмурную погоду, а также при ветре 12 м/с и более поправка равна нулю.
P - Атмосферное давление - приведенное к уровню моря атмосферное давление.
Po - Атмосферное давление - измеренное на уровне метеостанции атмосферное давление.
Tmin - Минимальная температура - минимум температуры воздуха на высоте 2 м над землей.
Tmax - Максимальная температура - максимум температуры воздуха на высоте 2 м над землей.
R - Количество осадков - Количество выпавших осадков за период времени, мм. При наведении курсора мыши на число - период времени, за который выпало указанное количество осадков.
R24 - Количество осадков - Количество выпавших осадков за 24 часа, мм.
S - Снежный покров - Высота снежного покрова, см. При наведении курсора мыши на число - состояние снежного покрова и степень покрытия местности в баллах.